Miscellaneous Local Product
Issued by NWS Hastings, NE

Home | Current Version | Previous Version | Graphics & Text | Print | Product List | Glossary On
Versions: 1 2 3 4 5 6 7 8 9 10 11 12 13 14 15 16 17 18 19 20 21 22 23 24 25 26 27 28 29 30 31 32 33 34 35 36 37 38 39 40 41 42 43 44 45 46 47 48 49 50
000
AXUS43 KGID 301102
MISGRI

GID CWA HOURLY WEATHER ROUNDUP
NATIONAL WEATHER SERVICE HASTINGS NE
600 AM CDT SAT AUG 30 2014

NOTE: "FAIR" INDICATES FEW OR NO CLOUDS BELOW 12,000 FEET WITH NO
SIGNIFICANT WEATHER AND/OR OBSTRUCTIONS TO VISIBILITY.

...SOUTH CENTRAL NEBRASKA...

CITY           SKY/WX    TMP DP  RH WIND       PRES   REMARKS
GRAND ISLAND   CLEAR     60  57  89 NW3       29.98R
HASTINGS       CLEAR     61  56  83 N5        29.97R
KEARNEY        CLEAR     59  55  88 NW5       29.99S
ORD            CLEAR     57  55  93 NW5       29.97S
YORK           CLEAR     59 N/A N/A W6        29.95S
AURORA         CLEAR     59  59 100 NW3       29.97R
LEXINGTON      CLEAR     57  56  95 NW3       30.00S
HOLDREGE       CLEAR     59  56  92 CALM      30.00R
HEBRON         CLEAR     61  58  89 CALM      29.95R

...NEBRASKA PANHANDLE...

CITY           SKY/WX    TMP DP  RH WIND       PRES   REMARKS
CHADRON        CLEAR     52  50  93 CALM      29.96F
ALLIANCE       CLEAR     52  50  93 S3        30.02F
SCOTTSBLUFF    CLEAR     54  53  97 E7        30.02F
SIDNEY         CLEAR     54  51  90 S7        30.06F

...WESTERN AND NORTH CENTRAL NEBRASKA...

CITY           SKY/WX    TMP DP  RH WIND       PRES   REMARKS
VALENTINE      CLEAR     53  52  96 CALM      29.99F
AINSWORTH      CLEAR     55  54  97 CALM      29.99F
ONEILL         CLOUDY    60  60  99 N5        29.98S
BROKEN BOW     CLEAR     56  54  93 CALM      30.00S
IMPERIAL       PTCLDY    58  55  90 CALM      30.03F
NORTH PLATTE   PTCLDY    54  53  97 CALM      30.02S
MCCOOK         CLEAR     59  57  93 CALM      30.00F

...EASTERN NEBRASKA...

CITY           SKY/WX    TMP DP  RH WIND       PRES   REMARKS
NORFOLK        CLOUDY    62  60  93 NW10      29.94R
SO SIOUX CITY  CLOUDY    66  65  96 NW10G18   29.88R
TEKAMAH        CLEAR     64  62  93 NW6       29.89R
COLUMBUS       CLEAR     61  57  88 NW5       29.95R
ALBION         CLEAR     58  56  93 CALM      29.97R
OMAHA EPPLEY   CLEAR     63  61  93 NW6       29.89R
OFFUTT AFB     CLEAR     64  64 100 NW2       29.90R
MILLARD        CLEAR     65  64  93 NW3       29.90R
LINCOLN        CLEAR     65  60  84 NW6       29.93R
NEBRASKA CITY  CLEAR     64  64 100 W6        29.90R
BEATRICE       CLEAR     61  61 100 CALM      29.93R FOG
FALLS CITY     CLEAR     66  65  96 W6        29.89R

...NORTHERN KANSAS...

CITY           SKY/WX    TMP DP  RH WIND       PRES   REMARKS
GOODLAND       CLEAR     56  54  93 W6        30.05S
HILL CITY      CLEAR     61  59  93 CALM      29.99S
NORTON         MOSUNNY   57  54  88 CALM      29.98S
PHILLIPSBURG   CLEAR     61  61 100 CALM      29.98S
SMITH CENTER   CLEAR     61  57  88 CALM      29.99R
BELOIT         CLEAR     61  61 100 N5        29.95R
HAYS           CLEAR     61  54  77 N6        29.99S
RUSSELL        CLEAR     62  57  83 NW7       29.97S
CONCORDIA      CLEAR     63  62  97 W5        29.95R
SALINA         CLEAR     64  61  90 CALM      29.94R
TOPEKA         CLEAR     69  67  93 CALM      29.91R



USA.gov is the U.S. government's official web portal to all federal, state and local government web resources and services.